| time (UTC) | temp C | wind direction | speed KPH | gust KPH | rain 1hr cm | rain 24hr cm | rain mn cm | humidity % | barometer mb |
| 20260506221814 | 34 | 120 | 3.2 | 9.7 | 0.00 | 0.00 | 0.00 | 42 | 1012.2 |
| 20260506220331 | 34 | 165 | 8.0 | 11.3 | 0.00 | 0.00 | 0.00 | 41 | 1012.2 |
| 20260506214850 | 35 | 218 | 4.8 | 12.9 | 0.00 | 0.00 | 0.00 | 40 | 1012.2 |
| 20260506213314 | 35 | 176 | 6.4 | 12.9 | 0.00 | 0.00 | 0.00 | 39 | 1012.3 |
| 20260506211827 | 35 | 148 | 6.4 | 16.1 | 0.00 | 0.00 | 0.00 | 39 | 1012.5 |
| 20260506210316 | 35 | 169 | 4.8 | 9.7 | 0.00 | 0.00 | 0.00 | 40 | 1012.5 |
| 20260506204830 | 34 | 148 | 6.4 | 11.3 | 0.00 | 0.00 | 0.00 | 41 | 1012.7 |
| 20260506203325 | 34 | 180 | 6.4 | 12.9 | 0.00 | 0.00 | 0.00 | 39 | 1012.8 |
| 20260506201852 | 34 | 172 | 6.4 | 12.9 | 0.00 | 0.00 | 0.00 | 41 | 1012.9 |
| 20260506200313 | 34 | 259 | 6.4 | 11.3 | 0.00 | 0.00 | 0.00 | 39 | 1013.1 |
| 20260506194845 | 34 | 174 | 6.4 | 14.5 | 0.00 | 0.00 | 0.00 | 42 | 1013.3 |
| 20260506193313 | 34 | 203 | 4.8 | 12.9 | 0.00 | 0.00 | 0.00 | 42 | 1013.7 |
| 20260506191825 | 33 | 186 | 6.4 | 12.9 | 0.00 | 0.00 | 0.00 | 43 | 1013.9 |
| 20260506190327 | 33 | 198 | 8.0 | 16.1 | 0.00 | 0.00 | 0.00 | 41 | 1014.1 |
| 20260506184835 | 33 | 281 | 4.8 | 12.9 | 0.00 | 0.00 | 0.00 | 45 | 1014.1 |
| 20260506183329 | 33 | 196 | 6.4 | 12.9 | 0.00 | 0.00 | 0.00 | 45 | 1014.4 |
| 20260506181818 | 33 | 227 | 4.8 | 9.7 | 0.00 | 0.00 | 0.00 | 46 | 1014.6 |
| 20260506180321 | 32 | 163 | 3.2 | 12.9 | 0.00 | 0.00 | 0.00 | 47 | 1014.7 |
| 20260506174819 | 32 | 189 | 3.2 | 11.3 | 0.00 | 0.00 | 0.00 | 50 | 1014.8 |
| 20260506173350 | 31 | 129 | 6.4 | 14.5 | 0.00 | 0.00 | 0.00 | 52 | 1015.0 |
| 20260506171831 | 31 | 165 | 6.4 | 14.5 | 0.00 | 0.00 | 0.00 | 50 | 1015.4 |
| 20260506170320 | 31 | 144 | 4.8 | 16.1 | 0.00 | 0.00 | 0.00 | 52 | 1015.5 |
| 20260506164836 | 31 | 162 | 4.8 | 16.1 | 0.00 | 0.00 | 0.00 | 53 | 1015.6 |
| 20260506163323 | 31 | 180 | 6.4 | 11.3 | 0.00 | 0.00 | 0.00 | 54 | 1015.8 |
| 20260506161834 | 30 | 245 | 4.8 | 12.9 | 0.00 | 0.00 | 0.00 | 58 | 1016.0 |
| 20260506160315 | 30 | 153 | 3.2 | 11.3 | 0.00 | 0.00 | 0.00 | 59 | 1016.0 |
| 20260506154846 | 30 | 126 | 6.4 | 11.3 | 0.00 | 0.00 | 0.00 | 58 | 1016.1 |
| 20260506153318 | 28 | 194 | 6.4 | 11.3 | 0.00 | 0.00 | 0.00 | 60 | 1016.1 |
| 20260506151846 | 28 | 220 | 4.8 | 14.5 | 0.00 | 0.00 | 0.00 | 61 | 1016.0 |
| 20260506150334 | 27 | 128 | 4.8 | 12.9 | 0.00 | 0.00 | 0.00 | 65 | 1016.1 |
| 20260506144813 | 27 | 161 | 3.2 | 16.1 | 0.00 | 0.00 | 0.00 | 66 | 1015.9 |
| 20260506143341 | 26 | 171 | 8.0 | 14.5 | 0.00 | 0.00 | 0.00 | 68 | 1015.8 |
| 20260506141828 | 25 | 168 | 6.4 | 16.1 | 0.00 | 0.00 | 0.00 | 70 | 1015.8 |
| 20260506140328 | 24 | 175 | 6.4 | 16.1 | 0.00 | 0.00 | 0.00 | 73 | 1015.9 |
| 20260506134819 | 23 | 201 | 8.0 | 16.1 | 0.00 | 0.00 | 0.00 | 75 | 1016.0 |
| 20260506133327 | 23 | 161 | 6.4 | 16.1 | 0.00 | 0.00 | 0.00 | 77 | 1016.1 |
| 20260506131828 | 22 | 122 | 4.8 | 9.7 | 0.00 | 0.00 | 0.00 | 79 | 1016.0 |
| 20260506130315 | 21 | 159 | 6.4 | 14.5 | 0.00 | 0.00 | 0.00 | 81 | 1015.9 |
| 20260506124816 | 21 | 157 | 3.2 | 8.0 | 0.00 | 0.00 | 0.00 | 83 | 1015.6 |
| 20260506123346 | 20 | 217 | 4.8 | 9.7 | 0.00 | 0.00 | 0.00 | 85 | 1015.6 |
| 20260506121822 | 19 | 183 | 4.8 | 9.7 | 0.00 | 0.00 | 0.00 | 85 | 1015.4 |
| 20260506120315 | 18 | 173 | 3.2 | 4.8 | 0.00 | 0.00 | 0.00 | 86 | 1015.2 |
| 20260506114825 | 18 | 196 | 1.6 | 4.8 | 0.00 | 0.00 | 0.00 | 87 | 1015.3 |
| 20260506113337 | 18 | 173 | 1.6 | 3.2 | 0.00 | 0.00 | 0.00 | 87 | 1015.2 |
| 20260506111821 | 17 | 199 | 3.2 | 6.4 | 0.00 | 0.00 | 0.00 | 87 | 1015.1 |
| 20260506110332 | 17 | 140 | 0.0 | 1.6 | 0.00 | 0.00 | 0.00 | 86 | 1014.9 |
| 20260506104814 | 17 | 140 | 0.0 | 0.0 | 0.00 | 0.00 | 0.00 | 86 | 1014.8 |
| 20260506103344 | 17 | 140 | 0.0 | 3.2 | 0.00 | 0.00 | 0.00 | 86 | 1014.6 |
| 20260506101816 | 17 | 140 | 0.0 | 1.6 | 0.00 | 0.00 | 0.00 | 85 | 1014.4 |
| 20260506100328 | 17 | 140 | 0.0 | 1.6 | 0.00 | 0.00 | 0.00 | 84 | 1014.6 |
| 20260506094819 | 18 | 140 | 0.0 | 0.0 | 0.00 | 0.00 | 0.00 | 84 | 1014.7 |
| 20260506093314 | 18 | 140 | 0.0 | 0.0 | 0.00 | 0.00 | 0.00 | 83 | 1014.6 |
| 20260506091830 | 18 | 140 | 0.0 | 1.6 | 0.00 | 0.00 | 0.00 | 83 | 1014.3 |
| 20260506090326 | 18 | 182 | 0.0 | 1.6 | 0.00 | 0.00 | 0.00 | 83 | 1014.2 |
| 20260506084828 | 18 | 182 | 0.0 | 1.6 | 0.00 | 0.00 | 0.00 | 83 | 1014.4 |
| 20260506083323 | 18 | 182 | 0.0 | 1.6 | 0.00 | 0.00 | 0.00 | 83 | 1014.3 |
| 20260506081814 | 18 | 182 | 1.6 | 4.8 | 0.00 | 0.00 | 0.00 | 84 | 1014.3 |
| 20260506080326 | 18 | 176 | 1.6 | 4.8 | 0.00 | 0.00 | 0.00 | 84 | 1014.3 |
| 20260506073314 | 17 | 194 | 1.6 | 3.2 | 0.00 | 0.00 | 0.00 | 85 | 1013.9 |
| 20260506071817 | 17 | 175 | 1.6 | 3.2 | 0.00 | 0.00 | 0.00 | 85 | 1014.2 |
| 20260506070331 | 17 | 114 | 0.0 | 1.6 | 0.00 | 0.00 | 0.00 | 84 | 1014.5 |
| 20260506061826 | 18 | 114 | 0.0 | 0.0 | 0.00 | 0.00 | 0.00 | 81 | 1014.8 |
| 20260506060312 | 18 | 114 | 0.0 | 0.0 | 0.00 | 0.00 | 0.00 | 80 | 1014.9 |
| 20260506050313 | 18 | 114 | 0.0 | 0.0 | 0.00 | 0.00 | 0.00 | 75 | 1015.2 |
| 20260506044824 | 19 | 114 | 0.0 | 0.0 | 0.00 | 0.00 | 0.00 | 74 | 1015.5 |
| 20260506043338 | 19 | 114 | 0.0 | 1.6 | 0.00 | 0.00 | 0.00 | 74 | 1015.5 |
| 20260506041827 | 20 | 114 | 0.0 | 3.2 | 0.00 | 0.00 | 0.00 | 73 | 1015.4 |
| 20260506040315 | 20 | 114 | 0.0 | 0.0 | 0.00 | 0.00 | 0.00 | 72 | 1015.6 |
| 20260506034825 | 20 | 114 | 0.0 | 0.0 | 0.00 | 0.00 | 0.00 | 71 | 1015.6 |
| 20260506033320 | 20 | 114 | 0.0 | 0.0 | 0.00 | 0.00 | 0.00 | 70 | 1015.5 |
| 20260506031849 | 21 | 114 | 0.0 | 3.2 | 0.00 | 0.00 | 0.00 | 70 | 1015.4 |
| 20260506030320 | 21 | 186 | 0.0 | 1.6 | 0.00 | 0.00 | 0.00 | 69 | 1015.3 |
| 20260506024813 | 21 | 169 | 0.0 | 3.2 | 0.00 | 0.00 | 0.00 | 69 | 1015.2 |
| 20260506023320 | 21 | 148 | 0.0 | 4.8 | 0.00 | 0.00 | 0.00 | 68 | 1015.2 |
| 20260506021818 | 21 | 167 | 1.6 | 6.4 | 0.00 | 0.00 | 0.00 | 67 | 1015.0 |
| 20260506020328 | 21 | 177 | 1.6 | 6.4 | 0.00 | 0.00 | 0.00 | 66 | 1014.8 |
| 20260506014813 | 22 | 131 | 1.6 | 3.2 | 0.00 | 0.00 | 0.00 | 65 | 1014.6 |
| 20260506013328 | 22 | 98 | 3.2 | 8.0 | 0.00 | 0.00 | 0.00 | 65 | 1014.6 |
| 20260506011817 | 22 | 120 | 3.2 | 6.4 | 0.00 | 0.00 | 0.00 | 65 | 1014.5 |
| 20260506010317 | 22 | 160 | 3.2 | 6.4 | 0.00 | 0.00 | 0.00 | 64 | 1014.5 |
| 20260506004831 | 22 | 103 | 1.6 | 9.7 | 0.00 | 0.00 | 0.00 | 63 | 1014.5 |
| 20260506003320 | 23 | 106 | 3.2 | 6.4 | 0.00 | 0.00 | 0.00 | 62 | 1014.4 |
| 20260506001829 | 23 | 90 | 3.2 | 8.0 | 0.00 | 0.00 | 0.00 | 60 | 1014.4 |
| 20260506000316 | 23 | 82 | 3.2 | 9.7 | 0.00 | 0.00 | 0.00 | 59 | 1014.1 |
| 20260505234829 | 24 | 96 | 4.8 | 9.7 | 0.00 | 0.00 | 0.00 | 58 | 1014.0 |
| 20260505233318 | 25 | 101 | 3.2 | 9.7 | 0.00 | 0.00 | 0.00 | 56 | 1014.0 |
| 20260505231815 | 25 | 65 | 3.2 | 6.4 | 0.00 | 0.00 | 0.00 | 53 | 1013.9 |
| 20260505230316 | 26 | 111 | 4.8 | 11.3 | 0.00 | 0.00 | 0.00 | 51 | 1013.9 |
| 20260505224816 | 27 | 74 | 3.2 | 11.3 | 0.00 | 0.00 | 0.00 | 48 | 1013.8 |
| 20260505223326 | 27 | 105 | 3.2 | 9.7 | 0.00 | 0.00 | 0.00 | 47 | 1013.8 |